FW9028 Weather Reports


Display with metric or nautical units.
time (UTC)temp
F
wind
direction
speed
MPH
gust
MPH
rain 1hr
in
rain 24hr
in
rain mn
in
humidity
%
barometer
mb
20260507134053 85 129 5.0 13.0 0.00 0.00 0.00 73 1010.3
20260507133053 85 82 2.0 13.0 0.00 0.00 0.00 73 1010.3
20260507132553 85 109 6.0 13.0 0.00 0.00 0.00 72 1010.0
20260507132053 85 140 6.0 11.0 0.00 0.00 0.00 72 1009.9
20260507131553 85 75 7.0 14.0 0.00 0.00 0.00 72 1010.0
20260507131053 85 122 11.0 14.0 0.00 0.00 0.00 72 1010.0
20260507130553 85 84 4.0 15.0 0.00 0.00 0.00 72 1010.1
20260507130053 85 117 7.0 15.0 0.00 0.00 0.00 71 1009.7
20260507125553 86 41 4.0 12.0 0.00 0.00 0.00 72 1009.8
20260507125053 86 94 4.0 12.0 0.00 0.00 0.00 72 1010.0
20260507124554 86 115 8.0 12.0 0.00 0.00 0.00 72 1009.9
20260507124053 86 122 3.0 13.0 0.00 0.00 0.00 72 1009.9
20260507123553 86 122 9.0 13.0 0.00 0.00 0.00 72 1010.1
20260507122553 86 125 11.0 13.0 0.00 0.00 0.00 72 1009.7
20260507122053 86 126 5.0 13.0 0.00 0.00 0.00 72 1009.7
20260507121553 86 117 5.0 15.0 0.00 0.00 0.00 72 1009.8
20260507121053 86 81 3.0 15.0 0.00 0.00 0.00 72 1009.8
20260507120553 87 126 7.0 12.0 0.00 0.00 0.00 72 1009.6
20260507120054 87 105 5.0 12.0 0.00 0.00 0.00 72 1009.6
20260507115553 87 101 4.0 11.0 0.00 0.00 0.00 72 1009.2
20260507115053 87 108 4.0 15.0 0.00 0.00 0.00 72 1009.1
20260507114053 87 102 10.0 14.0 0.00 0.00 0.00 72 1009.1
20260507113553 87 100 8.0 13.0 0.00 0.00 0.00 72 1009.1
20260507113053 87 116 6.0 14.0 0.00 0.00 0.00 72 1009.3
20260507112553 87 99 3.0 16.0 0.00 0.00 0.00 71 1009.3
20260507112053 87 122 3.0 16.0 0.00 0.00 0.00 71 1009.4
20260507111553 87 94 4.0 14.0 0.00 0.00 0.00 72 1008.9
20260507111053 87 110 7.0 11.0 0.00 0.00 0.00 72 1009.2
20260507110553 87 107 5.0 13.0 0.00 0.00 0.00 71 1009.1
20260507110053 87 125 3.0 13.0 0.00 0.00 0.00 72 1008.8
20260507105553 87 99 11.0 14.0 0.00 0.00 0.00 71 1008.8
20260507104554 87 99 6.0 14.0 0.00 0.00 0.00 72 1008.7
20260507104053 87 114 9.0 14.0 0.00 0.00 0.00 72 1008.7
20260507103553 87 96 8.0 15.0 0.00 0.00 0.00 72 1008.5
20260507103053 87 110 4.0 15.0 0.00 0.00 0.00 72 1008.6
20260507102053 88 135 6.0 18.0 0.00 0.00 0.00 72 1008.5
20260507101554 88 121 8.0 17.0 0.00 0.00 0.00 71 1008.3
20260507101053 88 127 13.0 17.0 0.00 0.00 0.00 70 1008.3
20260507100553 88 76 10.0 16.0 0.00 0.00 0.00 70 1008.1
20260507100053 89 93 8.0 16.0 0.00 0.00 0.00 69 1008.1
20260507095553 89 121 4.0 18.0 0.00 0.00 0.00 68 1008.0
20260507095053 89 151 6.0 18.0 0.00 0.00 0.00 68 1008.2
20260507094553 89 88 6.0 17.0 0.00 0.00 0.00 68 1008.2
20260507094053 89 111 11.0 19.0 0.00 0.00 0.00 67 1007.9
20260507093553 90 131 13.0 19.0 0.00 0.00 0.00 67 1008.1
20260507093053 90 91 6.0 21.0 0.00 0.00 0.00 66 1007.8
20260507092054 90 93 8.0 23.0 0.00 0.00 0.00 66 1007.8
20260507091554 91 99 15.0 23.0 0.00 0.00 0.00 65 1007.7
20260507091053 91 113 7.0 17.0 0.00 0.00 0.00 65 1007.5
20260507090553 91 44 2.0 17.0 0.00 0.00 0.00 64 1007.7
20260507090053 91 109 4.0 17.0 0.00 0.00 0.00 64 1007.4
20260507085553 91 135 12.0 17.0 0.00 0.00 0.00 63 1007.3
20260507084553 92 109 7.0 20.0 0.00 0.00 0.00 62 1007.1
20260507083553 93 142 6.0 20.0 0.00 0.00 0.00 62 1007.1
20260507083053 92 78 4.0 20.0 0.00 0.00 0.00 61 1007.2
20260507082554 93 107 4.0 19.0 0.00 0.00 0.00 60 1007.2
20260507082053 93 129 6.0 16.0 0.00 0.00 0.00 60 1007.1
20260507080553 93 100 5.0 13.0 0.00 0.00 0.00 60 1007.1
20260507075553 94 128 11.0 16.0 0.00 0.00 0.00 58 1007.2
20260507075053 94 122 4.0 18.0 0.00 0.00 0.00 60 1007.3
20260507074553 93 142 3.0 19.0 0.00 0.00 0.00 60 1007.2
20260507073553 94 132 9.0 16.0 0.00 0.00 0.00 58 1007.2
20260507073053 94 111 3.0 17.0 0.00 0.00 0.00 58 1007.2
20260507072553 94 31 3.0 17.0 0.00 0.00 0.00 58 1007.0
20260507072053 94 191 3.0 14.0 0.00 0.00 0.00 58 1007.2
20260507071553 94 134 2.0 16.0 0.00 0.00 0.00 57 1007.3
20260507071053 94 129 8.0 17.0 0.00 0.00 0.00 57 1007.1
20260507070053 95 111 12.0 16.0 0.00 0.00 0.00 57 1007.2
20260507065554 95 178 10.0 13.0 0.00 0.00 0.00 56 1007.3
20260507065053 94 147 7.0 17.0 0.00 0.00 0.00 57 1007.2
20260507064553 94 93 8.0 17.0 0.00 0.00 0.00 57 1007.4
20260507064053 94 105 7.0 16.0 0.00 0.00 0.00 57 1007.4
20260507063553 94 101 7.0 16.0 0.00 0.00 0.00 56 1007.5
20260507062053 95 106 7.0 16.0 0.00 0.00 0.00 56 1007.6
20260507061553 95 116 10.0 17.0 0.00 0.00 0.00 55 1007.6
20260507061053 94 132 10.0 17.0 0.00 0.00 0.00 56 1007.8
20260507060553 94 149 4.0 17.0 0.00 0.00 0.00 56 1007.9
20260507060053 94 163 7.0 17.0 0.00 0.00 0.00 56 1007.7
20260507055553 94 117 6.0 14.0 0.00 0.00 0.00 55 1008.0
20260507055053 95 98 7.0 14.0 0.00 0.00 0.00 54 1008.1
20260507054553 94 98 8.0 14.0 0.00 0.00 0.00 55 1008.2
20260507053553 94 118 11.0 16.0 0.00 0.00 0.00 53 1008.5
20260507052553 93 111 4.0 17.0 0.00 0.00 0.00 56 1008.5
20260507052053 93 169 8.0 17.0 0.00 0.00 0.00 57 1008.9
20260507051553 94 112 7.0 15.0 0.00 0.00 0.00 54 1008.7
20260507051056 95 94 4.0 10.0 0.00 0.00 0.00 54 1008.7
20260507050553 94 88 5.0 11.0 0.00 0.00 0.00 55 1008.9
20260507045553 93 99 4.0 13.0 0.00 0.00 0.00 54 1009.2
20260507045053 92 119 6.0 15.0 0.00 0.00 0.00 57 1009.3
20260507044553 92 91 9.0 17.0 0.00 0.00 0.00 56 1009.5
20260507043553 93 103 11.0 13.0 0.00 0.00 0.00 56 1009.6
20260507043053 94 73 10.0 13.0 0.00 0.00 0.00 55 1009.9
20260507042553 94 129 4.0 13.0 0.00 0.00 0.00 55 1009.9
20260507042053 93 149 2.0 13.0 0.00 0.00 0.00 57 1009.8
20260507041553 93 139 3.0 11.0 0.00 0.00 0.00 56 1009.9
20260507041053 92 117 1.0 13.0 0.00 0.00 0.00 57 1010.0
20260507040054 92 84 10.0 15.0 0.00 0.00 0.00 56 1010.0
20260507035553 92 105 11.0 15.0 0.00 0.00 0.00 57 1010.2
20260507035053 92 0 4.0 13.0 0.00 0.00 0.00 58 1010.1
20260507034553 92 86 7.0 16.0 0.00 0.00 0.00 57 1010.2
20260507034053 91 97 10.0 17.0 0.00 0.00 0.00 59 1010.4
20260507033553 91 128 3.0 19.0 0.00 0.00 0.00 59 1010.6
20260507033053 91 98 10.0 19.0 0.00 0.00 0.00 59 1010.5
20260507032553 92 113 7.0 15.0 0.00 0.00 0.00 58 1010.5
20260507032053 92 126 9.0 17.0 0.00 0.00 0.00 59 1010.5
20260507031053 91 107 14.0 15.0 0.00 0.00 0.00 60 1010.6
20260507030553 90 109 6.0 15.0 0.00 0.00 0.00 63 1010.5
20260507025553 90 108 4.0 17.0 0.00 0.00 0.00 62 1010.7
20260507025053 91 149 10.0 18.0 0.00 0.00 0.00 61 1010.8
20260507024553 90 117 9.0 18.0 0.00 0.00 0.00 62 1010.7
20260507023554 90 110 11.0 20.0 0.00 0.00 0.00 62 1010.8
20260507022554 91 53 2.0 16.0 0.00 0.00 0.00 62 1011.0
20260507022053 91 81 10.0 16.0 0.00 0.00 0.00 61 1010.9
20260507020553 91 113 7.0 13.0 0.00 0.00 0.00 63 1011.1
20260507020053 91 98 7.0 16.0 0.00 0.00 0.00 62 1010.9
20260507015053 90 114 10.0 19.0 0.00 0.00 0.00 62 1011.2
20260507014552 90 97 6.0 19.0 0.00 0.00 0.00 62 1011.2
20260507013053 89 67 6.0 16.0 0.00 0.00 0.00 64 1011.2
20260507012053 90 119 6.0 11.0 0.00 0.00 0.00 62 1011.3
20260507011553 89 61 7.0 11.0 0.00 0.00 0.00 63 1011.4
20260507010553 88 138 5.0 14.0 0.00 0.00 0.00 65 1011.3
20260507010053 88 145 3.0 15.0 0.00 0.00 0.00 65 1011.3
20260507005553 87 121 7.0 16.0 0.00 0.00 0.00 67 1011.4
20260507005053 87 149 5.0 16.0 0.00 0.00 0.00 68 1011.3
20260507004553 87 114 8.0 15.0 0.00 0.00 0.00 68 1011.4
20260507004053 87 78 7.0 16.0 0.00 0.00 0.00 69 1011.3
20260507003553 87 110 7.0 16.0 0.00 0.00 0.00 68 1011.2
20260507003053 87 112 3.0 14.0 0.00 0.00 0.00 70 1011.3
20260507002053 86 107 7.0 17.0 0.00 0.00 0.00 71 1011.3
20260507001553 86 99 11.0 17.0 0.00 0.00 0.00 71 1011.5
20260507001053 86 119 10.0 14.0 0.00 0.00 0.00 71 1011.3
20260507000553 86 118 6.0 15.0 0.00 0.00 0.00 71 1011.3
20260506235554 85 150 2.0 15.0 0.00 0.00 0.00 73 1011.2
20260506235052 85 86 4.0 16.0 0.00 0.00 0.00 73 1011.3
20260506234554 85 134 6.0 16.0 0.00 0.00 0.00 73 1011.2
20260506234053 85 113 10.0 15.0 0.00 0.00 0.00 72 1011.1
20260506233553 85 111 6.0 15.0 0.00 0.00 0.00 72 1011.1
20260506232553 85 156 5.0 13.0 0.00 0.00 0.00 72 1011.0
20260506232053 85 128 5.0 13.0 0.00 0.00 0.00 73 1010.9
20260506231552 85 114 10.0 14.0 0.00 0.00 0.00 73 1011.1
20260506231053 85 117 11.0 14.0 0.00 0.00 0.00 73 1011.0
20260506230054 84 121 4.0 12.0 0.00 0.00 0.00 75 1010.9
20260506225053 84 129 7.0 13.0 0.00 0.00 0.00 75 1010.8
20260506224553 84 135 4.0 13.0 0.00 0.00 0.00 76 1010.7
20260506224052 84 94 4.0 12.0 0.00 0.00 0.00 76 1010.5
20260506223053 83 104 6.0 12.0 0.00 0.00 0.00 77 1010.6
20260506222553 83 110 5.0 14.0 0.00 0.00 0.00 77 1010.6
20260506222053 83 97 7.0 14.0 0.00 0.00 0.00 77 1010.3
20260506221054 82 98 10.0 14.0 0.00 0.00 0.00 78 1010.5
20260506220553 82 73 4.0 14.0 0.00 0.00 0.00 79 1010.3
20260506220053 82 100 6.0 14.0 0.00 0.00 0.00 80 1010.4
20260506215553 82 93 8.0 12.0 0.00 0.00 0.00 80 1010.6
20260506215052 82 99 6.0 13.0 0.00 0.00 0.00 81 1010.4
20260506214553 81 119 4.0 13.0 0.00 0.00 0.00 81 1010.5
20260506213553 81 63 4.0 11.0 0.00 0.00 0.00 81 1010.3
20260506212053 81 108 3.0 11.0 0.00 0.00 0.00 81 1010.1
20260506211553 81 142 4.0 12.0 0.00 0.00 0.00 81 1010.2
20260506210053 81 55 4.0 9.0 0.00 0.00 0.00 82 1010.3
20260506205553 81 114 4.0 5.0 0.00 0.00 0.00 83 1010.1
20260506205053 81 129 2.0 5.0 0.00 0.00 0.00 82 1010.0
20260506204553 81 87 3.0 7.0 0.00 0.00 0.00 82 1009.8
20260506204053 81 161 2.0 7.0 0.00 0.00 0.00 82 1010.0
20260506203553 81 107 2.0 6.0 0.00 0.00 0.00 82 1009.9
20260506203053 81 115 4.0 6.0 0.00 0.00 0.00 82 1009.9
20260506202553 81 75 2.0 6.0 0.00 0.00 0.00 81 1010.0
20260506201553 81 109 4.0 8.0 0.00 0.00 0.00 81 1009.6
20260506201053 81 114 3.0 8.0 0.00 0.00 0.00 80 1009.8
20260506200553 81 118 3.0 8.0 0.00 0.00 0.00 80 1009.8
20260506200054 82 99 4.0 8.0 0.00 0.00 0.00 79 1009.8
20260506195553 82 87 6.0 10.0 0.00 0.00 0.00 78 1009.8
20260506195053 82 81 6.0 10.0 0.00 0.00 0.00 78 1009.9
20260506194553 82 130 2.0 11.0 0.00 0.00 0.00 78 1009.7
20260506194053 82 114 7.0 13.0 0.00 0.00 0.00 77 1009.8
20260506193553 82 120 6.0 13.0 0.00 0.00 0.00 77 1009.6
20260506193054 82 89 6.0 10.0 0.00 0.00 0.00 77 1009.4
20260506192553 82 96 7.0 10.0 0.00 0.00 0.00 76 1009.7
20260506192053 82 110 5.0 10.0 0.00 0.00 0.00 76 1009.5
20260506191554 82 136 4.0 9.0 0.00 0.00 0.00 77 1009.6
20260506191053 82 97 4.0 13.0 0.00 0.00 0.00 77 1009.4
20260506190553 82 112 4.0 13.0 0.00 0.00 0.00 77 1009.6
20260506190054 82 82 6.0 13.0 0.00 0.00 0.00 76 1009.5
20260506185553 82 131 4.0 13.0 0.00 0.00 0.00 77 1009.4
20260506185053 82 99 7.0 13.0 0.00 0.00 0.00 76 1009.7
20260506184553 82 129 9.0 14.0 0.00 0.00 0.00 77 1009.6
20260506184053 82 114 5.0 14.0 0.00 0.00 0.00 76 1009.5
20260506183553 82 130 2.0 14.0 0.00 0.00 0.00 76 1009.5
20260506183054 82 79 5.0 14.0 0.00 0.00 0.00 75 1009.6
20260506182553 82 172 6.0 13.0 0.00 0.00 0.00 76 1009.8
20260506182053 82 89 5.0 12.0 0.00 0.00 0.00 76 1009.5
20260506181553 82 103 5.0 12.0 0.00 0.00 0.00 77 1009.6
20260506181053 82 135 4.0 11.0 0.00 0.00 0.00 76 1009.7
20260506180554 82 124 3.0 14.0 0.00 0.00 0.00 76 1009.7
20260506180053 82 94 4.0 14.0 0.00 0.00 0.00 75 1009.7
20260506175553 82 107 2.0 13.0 0.00 0.00 0.00 75 1009.8
20260506175053 82 119 4.0 13.0 0.00 0.00 0.00 75 1009.8
20260506174553 82 88 3.0 13.0 0.00 0.00 0.00 75 1009.8
20260506174052 82 111 4.0 14.0 0.00 0.00 0.00 76 1009.8
20260506173553 82 119 5.0 14.0 0.00 0.00 0.00 76 1009.9
20260506173053 82 129 6.0 11.0 0.00 0.00 0.00 76 1010.0
20260506172553 82 174 3.0 10.0 0.00 0.00 0.00 76 1009.9
20260506172053 82 105 4.0 17.0 0.00 0.00 0.00 76 1010.0
20260506171553 82 117 4.0 17.0 0.00 0.00 0.00 76 1010.0
20260506171053 82 177 6.0 10.0 0.00 0.00 0.00 76 1010.1
20260506170553 82 158 3.0 11.0 0.00 0.00 0.00 76 1010.3
20260506170053 83 101 2.0 13.0 0.00 0.00 0.00 75 1010.2
20260506165553 82 106 5.0 13.0 0.00 0.00 0.00 75 1010.2
20260506165053 82 104 6.0 11.0 0.00 0.00 0.00 77 1010.3
20260506164553 82 96 4.0 11.0 0.00 0.00 0.00 77 1010.4
20260506164053 82 112 9.0 9.0 0.00 0.00 0.00 77 1010.4
20260506163553 82 94 4.0 9.0 0.00 0.00 0.00 77 1010.4
20260506163053 82 109 3.0 13.0 0.00 0.00 0.00 77 1010.3
20260506162052 83 145 3.0 11.0 0.00 0.00 0.00 77 1010.6
20260506161553 83 119 4.0 11.0 0.00 0.00 0.00 76 1010.5
20260506161053 83 114 8.0 12.0 0.00 0.00 0.00 76 1010.6
20260506160553 83 146 6.0 12.0 0.00 0.00 0.00 77 1010.5
20260506155553 83 102 4.0 15.0 0.00 0.00 0.00 77 1010.8
20260506155053 83 112 4.0 15.0 0.00 0.00 0.00 77 1010.8
20260506154053 83 137 5.0 15.0 0.00 0.00 0.00 77 1010.9
20260506153553 83 68 1.0 12.0 0.00 0.00 0.00 77 1011.0
20260506153053 83 182 5.0 13.0 0.00 0.00 0.00 77 1011.1
20260506152554 83 84 4.0 13.0 0.00 0.00 0.00 77 1011.0
20260506152053 83 120 5.0 13.0 0.00 0.00 0.00 77 1011.1
20260506151553 83 126 3.0 13.0 0.00 0.00 0.00 76 1011.1
20260506151053 83 122 9.0 13.0 0.00 0.00 0.00 76 1011.1
20260506150553 83 114 5.0 15.0 0.00 0.00 0.00 77 1011.3
20260506150053 83 125 8.0 15.0 0.00 0.00 0.00 76 1011.2
20260506145552 83 120 3.0 14.0 0.00 0.00 0.00 76 1011.4
20260506145053 83 131 4.0 14.0 0.00 0.00 0.00 76 1011.3
20260506144554 83 102 3.0 14.0 0.00 0.00 0.00 76 1011.3
20260506144053 83 180 5.0 14.0 0.00 0.00 0.00 76 1011.3
20260506143553 83 130 5.0 13.0 0.00 0.00 0.00 76 1011.2
20260506143053 83 118 4.0 12.0 0.00 0.00 0.00 75 1011.4
20260506142553 83 131 7.0 14.0 0.00 0.00 0.00 76 1011.3
20260506142053 84 103 6.0 15.0 0.00 0.00 0.00 76 1011.5
20260506141553 84 117 9.0 15.0 0.00 0.00 0.00 76 1011.4
20260506141053 84 148 4.0 14.0 0.00 0.00 0.00 76 1011.6
20260506140553 84 139 5.0 14.0 0.00 0.00 0.00 75 1011.3
20260506140053 84 146 9.0 14.0 0.00 0.00 0.00 75 1011.3
20260506135553 84 112 10.0 15.0 0.00 0.00 0.00 74 1011.2
20260506135053 84 117 3.0 15.0 0.00 0.00 0.00 73 1011.4